Starlink 2666

operational
NORAD ID: 48666 Int'l Des: 2021-044 Owner: SPXS Country: US Constellation: starlink
LEOCIRCULARSTARLINK_TYPE

About Starlink 2666

Description loading...

Live Position

Loading 3D Globe...

Upcoming Passes

Altitude History

Altitude vs Time

uPlot chart will show altitude changes over time

Two-Line Element Set

1 48666U 21044AE 26061.50406751 -.00000200 00000-0 54731-5 0 9992
2 48666 53.0554 144.3476 0001065 99.7940 260.3169 15.06388852262758
Epoch: Mar 2, 2026 • Age: 34 hours

Current Status

Altitude 560.8 km
Velocity 7.58 km/s
Sub-Earth Point -39.44°S, 148.68°E
Launch Date May 26, 2021
Age 4.7 years
Type internet

Technical Details

Classification Payload
Mass 260.00 kg
Dry Mass 248.00 kg
Total Mass 260.00 kg
Length 0.20 m
Diameter 2.80 m
Span 9.00 m
Shape Box + pan
Manufacturer SPXS
Bus Type Starlink
Phase Status In Orbit
Owner/State SPXS/US

Large Constellations

Loading constellations...